Home > Time Zones > World Clock > Weather > Russia > Perm > Past weeks

Flag for Russia Weather past 2 weeks in Perm, Russia

Now
72 °F

Broken clouds.


Feels Like: 77 °F
Forecast: 41 / 55 °F
Wind: 3 mph from South

Location: Perm'/Bolshoe Savino

Current Time: May 5, 2015 at 1:13:01 PM

Latest Report: May 5, 2015 at 12:30 PM


Visibility: N/A

Pressure: 29.71 "Hg

Humidity: 44%

Dew point: 48 °F

Location of PermLocation

Historic Weather in Perm — Graph

°F

Perm temperature yesterday

Maximum temperature yesterday: 68 °F (at 11:30 AM)
Minimum temperature yesterday: 52 °F (at 2:30 AM)
Average temperature yesterday: 59 °F

Past Weeks' High & Low Weather Summary

 TemperatureHumidityPressure
High77 °F (Apr 30, 2:00 PM)100% (Apr 20, 9:30 PM)30.45 "Hg (Apr 20, 9:30 PM)
Low25 °F (Apr 27, 5:30 AM)15% (May 2, 1:00 PM)29.15 "Hg (Apr 24, 2:30 PM)
Average46 °F60%29.80 "Hg
* Reported Apr 20 12:00 Noon — May 5 12:00 Noon, Perm, Weather by CustomWeather, © 2015

Note: Actual official high and low records may vary slightly from our data, if they occured in-between our weather recording intervals... More about our weather records

Advertising

Perm weather history for previous 24 hours

 ConditionsComfort  
Time TempWeatherWind HumidityBarometerVisibility
12:00 PM
Tue, May 5
70 °FBroken clouds.1 mph50%29.71 "HgN/A
11:30 AM66 °FBroken clouds.6 mph60%29.71 "HgN/A
11:00 AM64 °FPartly sunny.6 mph64%29.71 "HgN/A
10:30 AM63 °FBroken clouds.3 mph73%29.71 "HgN/A
10:00 AM59 °FThunderstorms. Broken clouds.6 mph77%29.71 "HgN/A
9:30 AM61 °FThunderstorms. Broken clouds.3 mph68%29.71 "HgN/A
9:00 AM59 °FBroken clouds.8 mph72%29.71 "HgN/A
8:30 AM59 °FBroken clouds.10 mph68%29.71 "HgN/A
8:00 AM57 °FSunny.10 mph72%29.71 "Hg10 mi
7:30 AM55 °FSunny.10 mph77%29.71 "Hg10 mi
7:00 AM54 °FClear.10 mph82%29.71 "Hg10 mi
6:30 AM52 °FClear.8 mph82%29.71 "Hg10 mi
6:00 AM52 °FClear.8 mph82%29.71 "Hg10 mi
5:30 AM50 °FClear.8 mph88%29.71 "Hg10 mi
5:00 AM50 °FClear.6 mph88%29.71 "Hg10 mi
4:30 AM52 °FClear.10 mph88%29.74 "Hg10 mi
4:00 AM54 °FClear.8 mph82%29.74 "Hg10 mi
3:30 AM54 °FPassing clouds.8 mph88%29.74 "HgN/A
3:00 AM55 °FPartly cloudy.10 mph82%29.74 "HgN/A
2:00 AM54 °FSprinkles. Partly cloudy.8 mph82%29.74 "HgN/A
1:30 AM54 °FClear.No wind82%29.74 "Hg10 mi
1:00 AM55 °FClear.8 mph77%29.74 "Hg10 mi
12:30 AM55 °FClear.6 mph77%29.74 "Hg10 mi
12:00 AM55 °FClear.6 mph82%29.77 "Hg10 mi
11:30 PM
Mon, May 4
55 °FClear.3 mph77%29.77 "Hg10 mi
11:00 PM55 °FPassing clouds.3 mph82%29.77 "HgN/A
10:30 PM55 °FSunny.3 mph77%29.77 "Hg10 mi
10:00 PM59 °FSunny.6 mph68%29.77 "Hg10 mi
9:30 PM59 °FSunny.6 mph68%29.77 "Hg10 mi
9:00 PM59 °FClear.3 mph68%29.77 "HgN/A
8:30 PM61 °FSunny.6 mph63%29.77 "Hg10 mi
8:00 PM64 °FSunny.6 mph56%29.80 "Hg10 mi
7:30 PM64 °FSunny.8 mph56%29.80 "Hg10 mi
7:00 PM64 °FSunny.8 mph56%29.80 "Hg10 mi
6:30 PM64 °FSunny.8 mph52%29.80 "Hg10 mi
6:00 PM64 °FSunny.8 mph52%29.80 "Hg10 mi
5:30 PM64 °FPassing clouds.10 mph56%29.83 "HgN/A
5:00 PM63 °FSunny.10 mph56%29.83 "Hg10 mi
4:30 PM61 °FPartly sunny.13 mph63%29.83 "HgN/A
4:00 PM59 °FBroken clouds.13 mph68%29.86 "HgN/A
3:30 PM59 °FBroken clouds.10 mph68%29.86 "HgN/A
3:00 PM59 °FSprinkles. Mostly cloudy.8 mph72%29.86 "HgN/A
2:30 PM59 °FSprinkles. Mostly cloudy.13 mph68%29.89 "HgN/A
2:00 PM61 °FSprinkles. Mostly cloudy.10 mph59%29.86 "HgN/A
1:30 PM63 °FSunny.13 mph52%29.86 "Hg10 mi
1:00 PM63 °FMore clouds than sun.13 mph52%29.86 "HgN/A
Weather by CustomWeather, © 2015

See weather overviewHow to use our weather pages